Location: Newark
(34.3481°N, 134.0494°E)
Time: 10:54:00
(UTC+00:00)

Vanguard 3 - Pass Details

Date: 22 January 2020
Orbit: 508 x 3263 km, 33.3° (Epoch: 19 February)

Event Time Altitude Azimuth Distance (km) Brightness Sun altitude
Rises 11:18:30 0° 263° (W) 7,217 13.0 -36.1°
Reaches altitude 10° 11:23:34 10° 263° (W) 6,100 12.3 -37.1°
Maximum altitude 11:42:16 86° 178° (S) 2,412 9.2 -41.0°
Enters shadow 11:43:04 82° 115° (ESE) 2,376 9.1 -41.1°
